Weather History for Portage Glacier, AK

Change the Weather History Date:

Wednesday, August 7, 2013

  Actual Average Record
Temperature  
Mean Temperature 55 °F -  
Max Temperature 59 °F - - ()
Min Temperature 53 °F - - ()
Degree Days  
Heating Degree Days 10    
Growing Degree Days 5 (Base 50)    
Moisture  
Dew Point 50 °F    
Average Humidity 82    
Maximum Humidity 96    
Minimum Humidity 72    
Precipitation  
Precipitation 0.38 in - - ()
Sea Level Pressure  
Sea Level Pressure 29.88 in    
Wind  
Wind Speed 11 mph (ESE)    
Max Wind Speed 20 mph    
Max Gust Speed 33 mph    
Visibility 8 miles    
Events Rain    
T = Trace of Precipitation, MM = Missing Value Source: NWS Daily Summary

Daily Weather History Graph

Daily Weather History Graph

Search for Another Location

Airport:

Trip Planner

Search our weather history database for the weather conditions in past years. The results will help you decide how hot, cold, wet, or windy it might be!

Date:

Astronomy

Aug. 07, 2013 Rise Set
Actual Time 5:46 AM AKDT 10:13 PM AKDT
Civil Twilight 4:48 AM AKDT 11:11 PM AKDT
Nautical Twilight 3:00 AM AKDT 12:53 AM AKDT
Astronomical Twilight Sun does not rise Sun does not rise
Moon 7:21 AM AKDT (8/7) 9:40 PM AKDT (8/7)
Length of Visible Light 18h 22m
Length of Day
16h 26m
New Moon, 1% of the Moon is Illuminated
Aug 7
New Moon
Aug 14
First Quarter
Aug 20
Full
Aug 28
Last Quarter
Sep 5
New

Hourly Weather History & Observations

Time (AKDT) Temp. Dew Point Humidity Pressure Visibility Wind Dir Wind Speed Gust Speed Precip Events Conditions
12:03 AM 53.1 °F 52.0 °F 96% 29.99 in 4.0 mi ESE 9.2 mph - 0.01 in Rain Light Rain
12:53 AM 53.1 °F 51.1 °F 93% 29.98 in 7.0 mi ESE 8.1 mph 18.4 mph 0.01 in Rain Light Rain
1:53 AM 53.1 °F 50.0 °F 89% 29.96 in 10.0 mi SE 8.1 mph - 0.00 in   Overcast
2:53 AM 55.0 °F 50.0 °F 83% 29.95 in 10.0 mi SE 10.4 mph 17.3 mph N/A   Overcast
3:53 AM 55.0 °F 50.0 °F 83% 29.93 in 10.0 mi Variable 6.9 mph - N/A   Overcast
4:53 AM 54.0 °F 50.0 °F 86% 29.93 in 10.0 mi SE 10.4 mph 18.4 mph N/A   Overcast
5:53 AM 53.1 °F 48.9 °F 86% 29.92 in 10.0 mi SE 8.1 mph 20.7 mph 0.00 in Rain Light Rain
6:53 AM 53.1 °F 48.9 °F 86% 29.91 in 10.0 mi SE 12.7 mph 21.9 mph 0.00 in   Overcast
7:53 AM 55.0 °F 50.0 °F 83% 29.91 in 10.0 mi SE 10.4 mph 23.0 mph 0.00 in Rain Light Rain
8:15 AM 55.0 °F 50.0 °F 83% 29.90 in 10.0 mi SE 8.1 mph - 0.00 in Rain Light Rain
8:53 AM 55.9 °F 50.0 °F 80% 29.90 in 10.0 mi ESE 15.0 mph 23.0 mph 0.00 in Rain Light Rain
9:53 AM 55.0 °F 51.1 °F 86% 29.90 in 10.0 mi Variable 6.9 mph 26.5 mph 0.02 in Rain Light Rain
10:53 AM 57.9 °F 50.0 °F 75% 29.89 in 10.0 mi East 16.1 mph 32.2 mph 0.00 in Rain Light Rain
11:06 AM 57.0 °F 50.0 °F 77% 29.89 in 10.0 mi ESE 17.3 mph 27.6 mph 0.00 in   Overcast
11:18 AM 55.9 °F 51.1 °F 84% 29.89 in 10.0 mi North - - 0.00 in   Overcast
11:28 AM 57.0 °F 50.0 °F 77% 29.88 in 10.0 mi SE 11.5 mph 25.3 mph 0.00 in   Overcast
11:53 AM 57.0 °F 50.0 °F 77% 29.89 in 10.0 mi ESE 9.2 mph 23.0 mph 0.00 in   Overcast
12:27 PM 57.0 °F 50.0 °F 77% 29.89 in 10.0 mi ESE 13.8 mph 23.0 mph 0.00 in Rain Light Rain
12:53 PM 55.9 °F 51.1 °F 84% 29.89 in 10.0 mi ESE 10.4 mph 25.3 mph 0.00 in Rain Light Rain
1:46 PM 57.9 °F 48.9 °F 72% 29.88 in 2.0 mi ESE 9.2 mph - 0.00 in   Haze
1:53 PM 57.0 °F 50.0 °F 77% 29.88 in 10.0 mi ESE 16.1 mph 26.5 mph 0.00 in   Overcast
2:53 PM 57.9 °F 50.0 °F 75% 29.86 in 10.0 mi ESE 12.7 mph 28.8 mph N/A   Overcast
3:53 PM 57.9 °F 48.9 °F 72% 29.86 in 10.0 mi SE 16.1 mph 29.9 mph N/A   Overcast
4:53 PM 57.9 °F 48.9 °F 72% 29.86 in 10.0 mi ESE 12.7 mph 28.8 mph N/A   Overcast
5:53 PM 57.0 °F 48.9 °F 74% 29.85 in 5.0 mi SE 9.2 mph 27.6 mph 0.00 in Rain Light Rain
6:49 PM 55.4 °F 50.0 °F 82% 29.84 in 4.0 mi SE 11.5 mph 25.3 mph 0.01 in Rain Light Rain
6:53 PM 54.0 °F 50.0 °F 86% 29.84 in 4.0 mi ESE 11.5 mph 25.3 mph 0.02 in Rain Light Rain
7:05 PM 55.0 °F 50.0 °F 83% 29.84 in 4.0 mi ESE 16.1 mph 29.9 mph 0.03 in Rain Rain
7:53 PM 55.0 °F 50.0 °F 83% 29.83 in 4.0 mi East 17.3 mph 29.9 mph 0.12 in Rain Rain
8:53 PM 55.9 °F 50.0 °F 80% 29.82 in 10.0 mi ESE 16.1 mph 28.8 mph 0.07 in Rain Light Rain
9:16 PM 55.9 °F 50.0 °F 80% 29.81 in 6.0 mi ESE 17.3 mph 31.1 mph 0.03 in Rain Rain
9:53 PM 55.0 °F 50.0 °F 83% 29.82 in 7.0 mi East 13.8 mph 29.9 mph 0.07 in Rain Light Rain
10:53 PM 55.0 °F 51.1 °F 86% 29.81 in 9.0 mi ESE 19.6 mph 31.1 mph 0.03 in Rain Light Rain
11:53 PM 55.0 °F 50.0 °F 83% 29.80 in 9.0 mi East 10.4 mph 33.4 mph 0.04 in Rain Light Rain